Date String (YYYY-MM-DD hh:mm:ss) UTC,Instrument flags,Ambient pressure (hPa),Sample flow (lpm),Bypass flow (lpm),Sample temperature (°C),Ambient temperature (°C),ASC tube jacket temperature (°C),LED temperature (°C),Box temperature (°C),Sample RH (%),Span deviation,Mass concentration (μg/m³),Mass concentration (μg/m³),Mass concentration (μg/m³)
DateTimeUTC,F1_M11,P_M11,Q1_M11,Q2_M11,T1_M11,T2_M11,T3_M11,T4_M11,T5_M11,U1_M11,ZSPAN_M11,X0_M11,X2_M11,X1_M11
2022-06-05 23:00:00,,0818.9,5.00,0.00,29.2,28.2,00.0,38.0,31.2,17.7,0000.0,0007.65,0003.16,0001.34
2022-06-05 23:01:00,,0819.0,5.00,0.00,29.2,28.3,00.0,38.0,31.2,17.8,0000.0,0007.49,0003.11,0001.34
2022-06-05 23:02:00,,0819.0,5.00,0.00,29.3,28.4,00.0,38.0,31.3,18.8,0000.0,0007.86,0003.17,0001.33
2022-06-05 23:03:00,,0818.9,5.00,0.00,29.3,28.2,00.0,38.0,31.2,17.9,0000.0,0008.41,0003.16,0001.31
2022-06-05 23:04:00,,0818.9,4.99,0.00,29.3,27.5,00.0,38.0,31.1,18.2,0000.0,0008.74,0003.12,0001.30
2022-06-05 23:05:00,,0818.9,5.00,0.00,29.2,27.3,00.0,37.9,31.0,18.7,0000.0,0008.62,0003.13,0001.28
2022-06-05 23:06:00,,0818.9,5.00,0.00,29.2,27.3,00.0,37.9,31.0,19.0,0000.0,0008.45,0003.06,0001.28
2022-06-05 23:07:00,,0819.0,4.98,0.00,29.1,27.4,00.0,37.9,31.0,19.1,0000.0,0008.52,0003.03,0001.27
2022-06-05 23:08:00,,0819.0,5.01,0.00,29.1,27.5,00.0,38.0,31.0,18.7,0000.0,0008.56,0003.03,0001.27
2022-06-05 23:09:00,,0818.9,5.01,0.00,29.1,27.7,00.0,38.0,31.0,18.7,0000.0,0008.55,0003.11,0001.29
2022-06-05 23:10:00,,0819.0,4.99,0.00,29.2,27.8,00.0,38.0,31.1,17.7,0000.0,0008.52,0003.12,0001.29
2022-06-05 23:11:00,,0819.0,5.01,0.00,29.2,27.9,00.0,38.0,31.1,17.1,0000.0,0008.38,0003.06,0001.29
2022-06-05 23:12:00,,0818.9,5.00,0.00,29.2,28.1,00.0,38.0,31.2,17.9,0000.0,0008.24,0003.02,0001.28
2022-06-05 23:13:00,,0818.9,5.00,0.00,29.2,28.2,00.0,38.0,31.2,18.5,0000.0,0008.00,0002.89,0001.27
2022-06-05 23:14:00,,0818.9,5.00,0.00,29.3,28.3,00.0,38.0,31.2,18.7,0000.0,0007.40,0002.84,0001.27
2022-06-05 23:15:00,,0819.0,4.99,0.00,29.3,28.4,00.0,38.0,31.3,18.3,0000.0,0007.64,0002.85,0001.27
2022-06-05 23:16:00,,0819.0,5.00,0.00,29.3,28.4,00.0,38.1,31.3,18.3,0000.0,0008.07,0002.75,0001.26
2022-06-05 23:17:00,,0818.9,5.01,0.00,29.3,27.7,00.0,38.0,31.1,18.3,0000.0,0008.47,0002.76,0001.27
2022-06-05 23:18:00,,0819.0,5.00,0.00,29.2,26.9,00.0,37.9,30.9,19.2,0000.0,0008.71,0002.76,0001.27
2022-06-05 23:19:00,,0819.0,4.99,0.00,29.1,26.7,00.0,37.9,30.8,19.0,0000.0,0008.65,0002.78,0001.27
2022-06-05 23:20:00,,0819.0,5.00,0.00,29.1,26.8,00.0,37.9,30.8,19.1,0000.0,0008.54,0002.69,0001.25
2022-06-05 23:21:00,,0819.0,5.01,0.00,29.0,26.9,00.0,37.9,30.8,18.2,0000.0,0008.50,0002.65,0001.24
2022-06-05 23:22:00,,0819.0,5.00,0.00,29.0,27.1,00.0,37.9,30.8,18.6,0000.0,0008.57,0002.69,0001.23
2022-06-05 23:23:00,,0819.0,5.00,0.00,29.0,27.3,00.0,37.9,30.9,18.4,0000.0,0008.89,0002.75,0001.23
2022-06-05 23:24:00,,0818.9,5.00,0.00,29.0,27.4,00.0,37.9,30.9,18.4,0000.0,0009.42,0002.86,0001.22
2022-06-05 23:25:00,,0818.9,4.99,0.00,29.0,27.6,00.0,37.9,31.0,18.4,0000.0,0009.49,0002.85,0001.22
2022-06-05 23:26:00,,0818.9,5.00,0.00,29.1,27.8,00.0,37.9,31.0,17.1,0000.0,0008.74,0002.82,0001.23
2022-06-05 23:27:00,,0818.9,5.01,0.00,29.1,27.9,00.0,37.9,31.0,18.6,0000.0,0008.19,0002.84,0001.23
2022-06-05 23:28:00,,0819.0,5.01,0.00,29.1,28.0,00.0,37.9,31.1,18.4,0000.0,0007.93,0002.89,0001.23
2022-06-05 23:29:00,,0818.9,5.00,0.00,29.2,28.2,00.0,37.9,31.1,17.0,0000.0,0007.63,0002.89,0001.24
2022-06-05 23:30:00,,0818.9,4.98,0.00,29.2,28.3,00.0,38.0,31.2,19.6,0000.0,0007.69,0002.91,0001.23
2022-06-05 23:31:00,,0818.9,5.00,0.00,29.2,28.4,00.0,38.0,31.2,17.5,0000.0,0007.74,0002.94,0001.24
2022-06-05 23:32:00,,0818.9,5.00,0.00,29.3,28.4,00.0,38.0,31.3,17.2,0000.0,0008.35,0003.00,0001.24
2022-06-05 23:33:00,,0818.9,5.00,0.00,29.3,28.5,00.0,38.0,31.3,16.8,0000.0,0008.41,0003.04,0001.26
2022-06-05 23:34:00,,0818.9,5.00,0.00,29.3,27.8,00.0,38.0,31.1,17.2,0000.0,0008.28,0003.06,0001.27
2022-06-05 23:35:00,,0819.0,4.99,0.00,29.2,27.0,00.0,37.9,30.9,18.3,0000.0,0007.71,0003.01,0001.28
2022-06-05 23:36:00,,0818.9,5.01,0.00,29.1,26.7,00.0,37.9,30.8,18.2,0000.0,0007.73,0003.08,0001.30
2022-06-05 23:37:00,,0818.9,4.99,0.00,29.1,26.8,00.0,37.9,30.8,17.9,0000.0,0008.10,0003.13,0001.32
2022-06-05 23:38:00,,0818.9,5.01,0.00,29.0,26.9,00.0,37.9,30.8,17.4,0000.0,0008.28,0003.13,0001.33
2022-06-05 23:39:00,,0818.9,5.00,0.00,29.0,27.1,00.0,37.9,30.8,17.4,0000.0,0008.83,0003.15,0001.35
2022-06-05 23:40:00,,0819.0,4.99,0.00,29.0,27.3,00.0,37.9,30.9,16.7,0000.0,0009.18,0003.19,0001.35
2022-06-05 23:41:00,,0818.9,4.99,0.00,29.0,27.5,00.0,37.9,30.9,16.8,0000.0,0009.27,0003.23,0001.38
2022-06-05 23:42:00,,0818.9,5.00,0.00,29.0,27.6,00.0,37.9,31.0,16.6,0000.0,0009.27,0003.24,0001.37
2022-06-05 23:43:00,,0818.9,5.00,0.00,29.1,27.8,00.0,37.9,31.0,17.0,0000.0,0008.93,0003.23,0001.38
2022-06-05 23:44:00,,0818.9,5.00,0.00,29.1,27.9,00.0,37.9,31.1,17.0,0000.0,0008.77,0003.21,0001.38
2022-06-05 23:45:00,,0818.9,5.00,0.00,29.1,28.1,00.0,37.9,31.1,17.1,0000.0,0008.53,0003.15,0001.37
2022-06-05 23:46:00,,0819.0,4.99,0.00,29.2,28.2,00.0,37.9,31.2,17.6,0000.0,0008.58,0003.16,0001.37
2022-06-05 23:47:00,,0818.9,5.00,0.00,29.2,28.3,00.0,37.9,31.2,17.4,0000.0,0008.56,0003.13,0001.37
2022-06-05 23:48:00,,0818.9,5.01,0.00,29.2,28.4,00.0,38.0,31.3,17.4,0000.0,0008.21,0003.11,0001.36
2022-06-05 23:49:00,,0818.9,5.00,0.00,29.3,28.5,00.0,38.0,31.3,17.5,0000.0,0008.49,0003.16,0001.37
2022-06-05 23:50:00,,0818.9,5.00,0.00,29.3,28.5,00.0,38.0,31.3,18.6,0000.0,0007.98,0003.18,0001.38
2022-06-05 23:51:00,,0819.0,4.99,0.00,29.3,27.9,00.0,38.0,31.2,18.4,0000.0,0008.16,0003.17,0001.39
2022-06-05 23:52:00,,0818.9,5.00,0.00,29.2,27.0,00.0,37.9,30.9,17.3,0000.0,0008.48,0003.12,0001.39
2022-06-05 23:53:00,,0819.0,5.01,0.00,29.2,26.8,00.0,37.9,30.8,17.2,0000.0,0009.11,0003.12,0001.39
2022-06-05 23:54:00,,0819.0,5.01,0.00,29.1,26.8,00.0,37.9,30.8,17.0,0000.0,0008.97,0003.10,0001.38
2022-06-05 23:55:00,,0819.0,4.99,0.00,29.0,26.9,00.0,37.9,30.8,18.1,0000.0,0008.90,0003.08,0001.37
2022-06-05 23:56:00,,0819.0,4.98,0.00,29.0,27.1,00.0,37.9,30.8,18.6,0000.0,0009.24,0003.11,0001.38
2022-06-05 23:57:00,,0819.0,5.01,0.00,29.0,27.3,00.0,37.9,30.9,18.1,0000.0,0009.28,0003.09,0001.37
2022-06-05 23:58:00,,0819.0,5.01,0.00,29.0,27.5,00.0,37.9,30.9,21.6,0000.0,0009.38,0003.07,0001.39
2022-06-05 23:59:00,,0819.1,5.00,0.00,29.1,27.7,00.0,37.9,31.0,22.8,0000.0,0010.13,0003.20,0001.49
